Regional Weather Roundup
Issued by NWS

Home | Current Version | Previous Version | Text Only | Print | Product List | Glossary On
Versions: 1 2 3 4 5 6 7 8 9 10 11 12 13 14 15 16 17 18 19 20 21 22 23 24 25 26 27 28
000
ASUS44 KLIX 270111
RWRLA
LOUISIANA WEATHER ROUNDUP
NATIONAL WEATHER SERVICE NEW ORLEANS LA
800 PM CDT TUE JUL 26 2016

NOTE: "FAIR" INDICATES FEW OR NO CLOUDS BELOW 12,000 FEET WITH NO
      SIGNIFICANT WEATHER AND/OR OBSTRUCTIONS TO VISIBILITY.
      SKY/WX - SKY CONDITION AND SIGNIFICANT WEATHER.
      TMP - AIR TEMPERATURE.    DP   - DEWPOINT TEMPERATURE.
      RH  - RELATIVE HUMIDITY.  PRES - PRESSURE.
      HX  - HEAT INDEX.         WCI  - WIND CHILL INDEX.

*  THESE STATIONS ARE NOT NWS OR FAA STATIONS AND ARE NOT UNDER
   NWS QUALITY CONTROL.

LAZ040-048-061>063-065-066-069-270200-
SOUTHEAST LOUISIANA

CITY           SKY/WX    TMP DP  RH WIND       PRES   REMARKS
N.O. AUDUBON     N/A     79  76  90 MISG        N/A
N.O. INTL ARPT CLOUDY    79  75  87 S10       29.94S
N.O. LAKEFRONT MOCLDY    78  73  84 S14       29.95R
N.O. DOWNTOWN* MOCLDY    79  74  84 S7        29.96S
RESERVE*       FAIR      80  75  85 S6        29.94R
SLIDELL        MOCLDY    79  76  90 SW5       29.93F
BATON ROUGE    CLOUDY    78  75  90 E3        29.92S
BOOTHVILLE     CLOUDY    81  73  76 SW13      29.97S
BELLE CHASSE   CLOUDY    77  77 100 SW6       29.95S
BOGALUSA*      MOCLDY    79  74  86 CALM      29.96R
GALLIANO*      CLOUDY    78  72  81 SW7       29.96R
NEW ROADS*     LGT RAIN  75  75  98 CALM      29.92S
GONZALES*      DRIZZLE   78  76  95 S5        29.92R
HAMMOND*       DRIZZLE   77  73  88 CALM      29.93S
HOUMA*         CLOUDY    77  73  87 S3        29.96R
PORT FOURCHON* CLEAR     82  70  65 SW8       29.96S

$$

LAZ041-044-053-054-270200-
SOUTHWEST LOUISIANA

CITY           SKY/WX    TMP DP  RH WIND       PRES   REMARKS
LAKE CHARLES   CLOUDY    83  75  77 SW5       29.90R
LAFAYETTE      CLOUDY    84  75  74 SW6       29.91R
PATTERSON      CLOUDY    80  75  84 SW5       29.94R
SALT POINT       N/A     84  73  69 SW12G18   29.92R
NEW IBERIA     CLOUDY    82  74  76 SW7       29.93R
CHENAULT AIRPK PTCLDY    84  75  74 SW5       29.90R

$$

LAZ027-028-270200-
CENTRAL LOUISIANA

CITY           SKY/WX    TMP DP  RH WIND       PRES   REMARKS
FORT POLK      LGT RAIN  81  72  74 E12       29.91R
ALEXANDRIA INT LGT RAIN  74  74 100 CALM      29.91R
ALEXANDRIA     CLOUDY    76  76 100 CALM      29.91S

$$

LAZ001-002-270200-
NORTHWEST LOUISIANA

CITY           SKY/WX    TMP DP  RH WIND       PRES   REMARKS
SHREVEPORT     PTCLDY    86  72  62 VRB6      29.89R
BARKSDALE AFB  CLEAR     89  71  54 SE6       29.89R
DTN SHREVEPORT CLEAR     91  71  51 E3        29.89R HX  97

$$

LAZ014-016-270200-
NORTHEAST LOUISIANA

CITY           SKY/WX    TMP DP  RH WIND       PRES   REMARKS
MONROE         MOCLDY    79  75  87 S7        29.93R
TALLULAH       CLOUDY    78  74  87 CALM      29.92S

$$





USA.gov is the U.S. government's official web portal to all federal, state and local government web resources and services.